Starlink 3131

operational
NORAD ID: 49427 Int'l Des: 2021-104 Owner: SPXS Country: US Constellation: starlink
LEOCIRCULAR

About Starlink 3131

Description loading...

Live Position

Loading 3D Globe...

Upcoming Passes

Altitude History

Altitude vs Time

uPlot chart will show altitude changes over time

Two-Line Element Set

1 49427U 21104V 26034.49252815 .00007111 00000-0 46430-3 0 9995
2 49427 53.2181 22.6472 0001380 86.5137 273.6013 15.08850527233475
Epoch: Feb 3, 2026 • Age: 15 hours

Current Status

Altitude 542.3 km
Velocity 7.60 km/s
Sub-Earth Point 38.93°N, 112.76°W
Launch Date Nov 13, 2021
Age 4.2 years
Type internet

Technical Details

Classification Payload
Mass 290.00 kg
Dry Mass 270.00 kg
Total Mass 290.00 kg
Length 0.20 m
Diameter 2.80 m
Span 9.00 m
Shape Box + pan
Manufacturer SPXS
Bus Type Starlink
Phase Status In Orbit
Owner/State SPXS/US

Large Constellations

Loading constellations...